| time (UTC) | temp C | wind direction | speed KPH | gust KPH | rain 1hr cm | rain 24hr cm | rain mn cm | humidity % | barometer mb |
| 20260510151545 | 16 | 308 | 1.6 | 4.8 | 0.00 | 0.00 | 0.00 | 88 | 1013.2 |
| 20260510151032 | 16 | 310 | 0.0 | 4.8 | 0.00 | 0.00 | 0.00 | 88 | 1013.1 |
| 20260510150532 | 16 | 352 | 1.6 | 4.8 | 0.00 | 0.00 | 0.00 | 88 | 1013.0 |
| 20260510150045 | 16 | 313 | 1.6 | 4.8 | 0.00 | 0.00 | 0.00 | 88 | 1013.0 |
| 20260510145531 | 16 | 294 | 0.0 | 4.8 | 0.00 | 0.00 | 0.00 | 88 | 1013.1 |
| 20260510145031 | 16 | 0 | 0.0 | 3.2 | 0.00 | 0.00 | 0.00 | 88 | 1013.1 |
| 20260510144551 | 16 | 0 | 0.0 | 3.2 | 0.00 | 0.00 | 0.00 | 88 | 1013.1 |
| 20260510144035 | 16 | 157 | 0.0 | 1.6 | 0.00 | 0.00 | 0.00 | 88 | 1013.0 |
| 20260510143532 | 15 | 0 | 0.0 | 3.2 | 0.00 | 0.00 | 0.00 | 88 | 1013.0 |
| 20260510143047 | 16 | 0 | 0.0 | 3.2 | 0.00 | 0.00 | 0.00 | 88 | 1012.9 |
| 20260510142531 | 15 | 0 | 0.0 | 3.2 | 0.00 | 0.00 | 0.00 | 88 | 1012.9 |
| 20260510142035 | 15 | 328 | 0.0 | 4.8 | 0.00 | 0.00 | 0.00 | 88 | 1012.9 |
| 20260510141555 | 15 | 332 | 0.0 | 4.8 | 0.00 | 0.00 | 0.00 | 88 | 1012.9 |
| 20260510141032 | 15 | 0 | 0.0 | 3.2 | 0.00 | 0.00 | 0.00 | 88 | 1012.8 |
| 20260510140532 | 15 | 0 | 0.0 | 4.8 | 0.00 | 0.00 | 0.00 | 88 | 1012.8 |
| 20260510140052 | 15 | 0 | 0.0 | 4.8 | 0.00 | 0.00 | 0.00 | 88 | 1012.7 |
| 20260510135532 | 15 | 20 | 0.0 | 4.8 | 0.00 | 0.00 | 0.00 | 88 | 1012.7 |
| 20260510135032 | 15 | 0 | 0.0 | 1.6 | 0.00 | 0.00 | 0.00 | 88 | 1012.7 |
| 20260510134555 | 15 | 0 | 0.0 | 0.0 | 0.00 | 0.00 | 0.00 | 88 | 1012.6 |
| 20260510134031 | 15 | 0 | 0.0 | 0.0 | 0.00 | 0.00 | 0.00 | 88 | 1012.6 |
| 20260510133531 | 15 | 0 | 0.0 | 1.6 | 0.00 | 0.00 | 0.00 | 88 | 1012.5 |
| 20260510133100 | 15 | 0 | 0.0 | 3.2 | 0.00 | 0.00 | 0.00 | 88 | 1012.5 |
| 20260510132531 | 15 | 0 | 0.0 | 3.2 | 0.00 | 0.00 | 0.00 | 87 | 1012.5 |
| 20260510132032 | 15 | 0 | 0.0 | 3.2 | 0.00 | 0.00 | 0.00 | 87 | 1012.5 |
| 20260510131601 | 15 | 0 | 0.0 | 3.2 | 0.00 | 0.00 | 0.00 | 87 | 1012.4 |
| 20260510131031 | 15 | 183 | 0.0 | 3.2 | 0.00 | 0.00 | 0.00 | 87 | 1012.4 |
| 20260510130533 | 15 | 0 | 0.0 | 3.2 | 0.00 | 0.00 | 0.00 | 87 | 1012.4 |
| 20260510130048 | 15 | 0 | 0.0 | 3.2 | 0.00 | 0.00 | 0.00 | 87 | 1012.4 |
| 20260510125531 | 15 | 0 | 0.0 | 3.2 | 0.00 | 0.00 | 0.00 | 87 | 1012.3 |
| 20260510125031 | 15 | 0 | 0.0 | 1.6 | 0.00 | 0.00 | 0.00 | 87 | 1012.4 |
| 20260510124543 | 15 | 0 | 0.0 | 4.8 | 0.00 | 0.00 | 0.00 | 87 | 1012.3 |
| 20260510124031 | 15 | 0 | 0.0 | 4.8 | 0.00 | 0.00 | 0.00 | 87 | 1012.4 |
| 20260510123533 | 15 | 360 | 0.0 | 4.8 | 0.00 | 0.00 | 0.00 | 87 | 1012.3 |
| 20260510123059 | 15 | 0 | 0.0 | 4.8 | 0.00 | 0.00 | 0.00 | 87 | 1012.4 |
| 20260510122533 | 15 | 0 | 0.0 | 4.8 | 0.00 | 0.00 | 0.00 | 87 | 1012.3 |
| 20260510122033 | 15 | 0 | 0.0 | 1.6 | 0.00 | 0.00 | 0.00 | 87 | 1012.3 |
| 20260510121541 | 15 | 0 | 0.0 | 1.6 | 0.00 | 0.00 | 0.00 | 87 | 1012.3 |
| 20260510121033 | 15 | 0 | 0.0 | 1.6 | 0.00 | 0.00 | 0.00 | 87 | 1012.3 |
| 20260510120530 | 15 | 0 | 0.0 | 1.6 | 0.00 | 0.00 | 0.00 | 87 | 1012.4 |
| 20260510120048 | 15 | 0 | 0.0 | 3.2 | 0.00 | 0.00 | 0.00 | 87 | 1012.3 |
| 20260510115534 | 16 | 0 | 0.0 | 3.2 | 0.00 | 0.00 | 0.00 | 87 | 1012.3 |
| 20260510115033 | 16 | 0 | 0.0 | 1.6 | 0.00 | 0.00 | 0.00 | 87 | 1012.2 |
| 20260510114548 | 16 | 0 | 0.0 | 1.6 | 0.00 | 0.00 | 0.00 | 88 | 1012.2 |
| 20260510114036 | 16 | 0 | 0.0 | 1.6 | 0.00 | 0.00 | 0.00 | 88 | 1012.3 |
| 20260510113534 | 16 | 0 | 0.0 | 1.6 | 0.00 | 0.00 | 0.00 | 88 | 1012.3 |
| 20260510113052 | 16 | 0 | 0.0 | 1.6 | 0.00 | 0.00 | 0.00 | 88 | 1012.2 |
| 20260510112534 | 16 | 0 | 0.0 | 1.6 | 0.00 | 0.00 | 0.00 | 88 | 1012.3 |
| 20260510112034 | 15 | 0 | 0.0 | 0.0 | 0.00 | 0.00 | 0.00 | 88 | 1012.3 |
| 20260510111558 | 15 | 0 | 0.0 | 1.6 | 0.00 | 0.00 | 0.00 | 88 | 1012.3 |
| 20260510111030 | 15 | 0 | 0.0 | 1.6 | 0.00 | 0.00 | 0.00 | 88 | 1012.3 |
| 20260510110530 | 16 | 0 | 0.0 | 1.6 | 0.00 | 0.00 | 0.00 | 88 | 1012.3 |
| 20260510110048 | 15 | 0 | 0.0 | 1.6 | 0.00 | 0.00 | 0.00 | 88 | 1012.4 |
| 20260510105531 | 15 | 0 | 0.0 | 1.6 | 0.00 | 0.00 | 0.00 | 88 | 1012.4 |
| 20260510105031 | 15 | 0 | 0.0 | 3.2 | 0.00 | 0.00 | 0.00 | 88 | 1012.5 |
| 20260510104547 | 15 | 348 | 0.0 | 3.2 | 0.00 | 0.00 | 0.00 | 88 | 1012.4 |
| 20260510104030 | 15 | 0 | 0.0 | 3.2 | 0.00 | 0.00 | 0.00 | 88 | 1012.5 |
| 20260510103533 | 15 | 0 | 0.0 | 1.6 | 0.00 | 0.00 | 0.00 | 88 | 1012.4 |
| 20260510103048 | 15 | 0 | 0.0 | 0.0 | 0.00 | 0.00 | 0.00 | 88 | 1012.4 |
| 20260510102530 | 15 | 0 | 0.0 | 0.0 | 0.00 | 0.00 | 0.00 | 88 | 1012.4 |
| 20260510102031 | 15 | 0 | 0.0 | 0.0 | 0.00 | 0.00 | 0.00 | 88 | 1012.4 |
| 20260510101545 | 15 | 0 | 0.0 | 0.0 | 0.00 | 0.00 | 0.00 | 88 | 1012.4 |
| 20260510101033 | 15 | 0 | 0.0 | 3.2 | 0.00 | 0.00 | 0.00 | 88 | 1012.4 |
| 20260510100534 | 15 | 0 | 0.0 | 3.2 | 0.00 | 0.00 | 0.00 | 88 | 1012.5 |
| 20260510100045 | 15 | 216 | 0.0 | 4.8 | 0.00 | 0.00 | 0.00 | 88 | 1012.5 |
| 20260510095534 | 15 | 0 | 0.0 | 6.4 | 0.00 | 0.00 | 0.00 | 88 | 1012.4 |
| 20260510095034 | 15 | 214 | 1.6 | 6.4 | 0.00 | 0.00 | 0.00 | 88 | 1012.5 |
| 20260510094551 | 16 | 225 | 3.2 | 6.4 | 0.00 | 0.00 | 0.00 | 87 | 1012.4 |
| 20260510094032 | 16 | 218 | 1.6 | 6.4 | 0.00 | 0.00 | 0.00 | 87 | 1012.5 |
| 20260510093532 | 16 | 194 | 1.6 | 4.8 | 0.00 | 0.00 | 0.00 | 87 | 1012.6 |
| 20260510093047 | 16 | 224 | 0.0 | 4.8 | 0.00 | 0.00 | 0.00 | 87 | 1012.6 |
| 20260510092534 | 16 | 224 | 0.0 | 4.8 | 0.00 | 0.00 | 0.00 | 87 | 1012.5 |
| 20260510092034 | 16 | 210 | 1.6 | 4.8 | 0.00 | 0.00 | 0.00 | 86 | 1012.6 |
| 20260510091551 | 16 | 0 | 1.6 | 4.8 | 0.00 | 0.00 | 0.00 | 86 | 1012.6 |
| 20260510091033 | 16 | 208 | 0.0 | 3.2 | 0.00 | 0.00 | 0.00 | 86 | 1012.6 |
| 20260510090534 | 16 | 0 | 0.0 | 1.6 | 0.00 | 0.00 | 0.00 | 86 | 1012.6 |
| 20260510090048 | 16 | 0 | 0.0 | 0.0 | 0.00 | 0.00 | 0.00 | 86 | 1012.6 |
| 20260510085532 | 16 | 0 | 0.0 | 0.0 | 0.00 | 0.00 | 0.00 | 86 | 1012.6 |
| 20260510085031 | 16 | 0 | 0.0 | 1.6 | 0.00 | 0.00 | 0.00 | 86 | 1012.7 |
| 20260510084546 | 16 | 0 | 0.0 | 1.6 | 0.00 | 0.00 | 0.00 | 86 | 1012.7 |
| 20260510084034 | 16 | 0 | 0.0 | 3.2 | 0.00 | 0.00 | 0.00 | 86 | 1012.7 |
| 20260510083535 | 16 | 0 | 0.0 | 3.2 | 0.00 | 0.00 | 0.00 | 86 | 1012.8 |
| 20260510083055 | 16 | 0 | 0.0 | 3.2 | 0.00 | 0.00 | 0.00 | 86 | 1012.8 |
| 20260510082531 | 16 | 0 | 0.0 | 0.0 | 0.00 | 0.00 | 0.00 | 86 | 1012.8 |
| 20260510082031 | 16 | 0 | 0.0 | 1.6 | 0.00 | 0.00 | 0.00 | 86 | 1012.9 |
| 20260510081552 | 16 | 0 | 0.0 | 3.2 | 0.00 | 0.00 | 0.00 | 86 | 1012.9 |
| 20260510081035 | 16 | 0 | 0.0 | 3.2 | 0.00 | 0.00 | 0.00 | 86 | 1012.9 |
| 20260510080532 | 16 | 201 | 0.0 | 3.2 | 0.00 | 0.00 | 0.00 | 86 | 1012.9 |
| 20260510080049 | 16 | 202 | 0.0 | 1.6 | 0.00 | 0.00 | 0.00 | 86 | 1012.9 |
| 20260510075531 | 16 | 0 | 0.0 | 1.6 | 0.00 | 0.00 | 0.00 | 86 | 1013.0 |
| 20260510075031 | 16 | 0 | 0.0 | 1.6 | 0.00 | 0.00 | 0.00 | 86 | 1013.0 |
| 20260510074545 | 16 | 0 | 0.0 | 1.6 | 0.00 | 0.00 | 0.00 | 86 | 1013.0 |
| 20260510074034 | 16 | 0 | 0.0 | 1.6 | 0.00 | 0.00 | 0.00 | 86 | 1013.1 |
| 20260510073532 | 16 | 0 | 0.0 | 3.2 | 0.00 | 0.00 | 0.00 | 86 | 1013.1 |
| 20260510073106 | 16 | 0 | 0.0 | 4.8 | 0.00 | 0.00 | 0.00 | 86 | 1013.2 |
| 20260510072531 | 16 | 0 | 0.0 | 4.8 | 0.00 | 0.00 | 0.00 | 86 | 1013.1 |
| 20260510072031 | 16 | 0 | 0.0 | 3.2 | 0.00 | 0.00 | 0.00 | 86 | 1013.2 |
| 20260510071601 | 16 | 0 | 0.0 | 3.2 | 0.00 | 0.00 | 0.00 | 86 | 1013.3 |
| 20260510071031 | 16 | 0 | 0.0 | 1.6 | 0.00 | 0.00 | 0.00 | 86 | 1013.2 |
| 20260510070530 | 16 | 0 | 0.0 | 1.6 | 0.00 | 0.00 | 0.00 | 86 | 1013.2 |
| 20260510070052 | 16 | 0 | 0.0 | 1.6 | 0.00 | 0.00 | 0.00 | 86 | 1013.2 |
| 20260510065534 | 16 | 0 | 0.0 | 1.6 | 0.00 | 0.00 | 0.00 | 86 | 1013.3 |
| 20260510065031 | 16 | 0 | 0.0 | 1.6 | 0.00 | 0.00 | 0.00 | 86 | 1013.3 |
| 20260510064556 | 16 | 0 | 0.0 | 1.6 | 0.00 | 0.00 | 0.00 | 86 | 1013.4 |
| 20260510064031 | 16 | 0 | 0.0 | 3.2 | 0.00 | 0.00 | 0.00 | 86 | 1013.4 |
| 20260510063534 | 16 | 0 | 0.0 | 3.2 | 0.00 | 0.00 | 0.00 | 86 | 1013.4 |
| 20260510063049 | 16 | 0 | 0.0 | 3.2 | 0.00 | 0.00 | 0.00 | 86 | 1013.4 |
| 20260510062531 | 16 | 0 | 0.0 | 3.2 | 0.00 | 0.00 | 0.00 | 86 | 1013.4 |
| 20260510062031 | 16 | 0 | 0.0 | 1.6 | 0.00 | 0.00 | 0.00 | 87 | 1013.4 |
| 20260510061546 | 16 | 0 | 0.0 | 4.8 | 0.00 | 0.00 | 0.00 | 86 | 1013.4 |
| 20260510061032 | 16 | 0 | 0.0 | 8.0 | 0.00 | 0.00 | 0.00 | 86 | 1013.4 |
| 20260510060532 | 16 | 220 | 3.2 | 8.0 | 0.00 | 0.00 | 0.00 | 86 | 1013.4 |
| 20260510060045 | 16 | 226 | 3.2 | 8.0 | 0.00 | 0.00 | 0.00 | 86 | 1013.3 |
| 20260510055532 | 16 | 214 | 1.6 | 4.8 | 0.00 | 0.00 | 0.00 | 86 | 1013.3 |
| 20260510055034 | 16 | 207 | 0.0 | 3.2 | 0.00 | 0.00 | 0.00 | 86 | 1013.3 |
| 20260510054545 | 16 | 223 | 0.0 | 1.6 | 0.00 | 0.00 | 0.00 | 86 | 1013.3 |
| 20260510054035 | 16 | 0 | 0.0 | 1.6 | 0.00 | 0.00 | 0.00 | 86 | 1013.3 |
| 20260510053555 | 16 | 0 | 0.0 | 1.6 | 0.00 | 0.00 | 0.00 | 86 | 1013.4 |
| 20260510053050 | 16 | 0 | 0.0 | 6.4 | 0.00 | 0.00 | 0.00 | 86 | 1013.4 |
| 20260510052535 | 16 | 0 | 0.0 | 6.4 | 0.00 | 0.00 | 0.00 | 86 | 1013.4 |
| 20260510052038 | 16 | 217 | 1.6 | 4.8 | 0.00 | 0.00 | 0.00 | 86 | 1013.4 |
| 20260510051549 | 16 | 213 | 0.0 | 4.8 | 0.00 | 0.00 | 0.00 | 86 | 1013.4 |
| 20260510051037 | 16 | 0 | 0.0 | 4.8 | 0.00 | 0.00 | 0.00 | 86 | 1013.4 |
| 20260510050535 | 16 | 254 | 1.6 | 4.8 | 0.00 | 0.00 | 0.00 | 86 | 1013.4 |
| 20260510050051 | 16 | 286 | 0.0 | 3.2 | 0.00 | 0.00 | 0.00 | 86 | 1013.4 |
| 20260510045535 | 16 | 0 | 0.0 | 4.8 | 0.00 | 0.00 | 0.00 | 86 | 1013.3 |
| 20260510045040 | 16 | 0 | 0.0 | 4.8 | 0.00 | 0.00 | 0.00 | 86 | 1013.3 |
| 20260510044551 | 16 | 278 | 0.0 | 4.8 | 0.00 | 0.00 | 0.00 | 86 | 1013.3 |
| 20260510044036 | 16 | 277 | 1.6 | 4.8 | 0.00 | 0.00 | 0.00 | 86 | 1013.2 |
| 20260510043536 | 16 | 252 | 0.0 | 4.8 | 0.00 | 0.00 | 0.00 | 86 | 1013.2 |
| 20260510043106 | 16 | 252 | 1.6 | 4.8 | 0.00 | 0.00 | 0.00 | 86 | 1013.2 |
| 20260510042531 | 16 | 0 | 0.0 | 3.2 | 0.00 | 0.00 | 0.00 | 86 | 1013.2 |
| 20260510042036 | 16 | 0 | 0.0 | 3.2 | 0.00 | 0.00 | 0.00 | 86 | 1013.1 |
| 20260510041555 | 16 | 278 | 0.0 | 3.2 | 0.00 | 0.00 | 0.00 | 86 | 1013.1 |
| 20260510041037 | 16 | 0 | 1.6 | 3.2 | 0.00 | 0.00 | 0.00 | 86 | 1013.0 |
| 20260510040536 | 16 | 278 | 0.0 | 1.6 | 0.00 | 0.00 | 0.00 | 86 | 1013.0 |
| 20260510040057 | 16 | 0 | 0.0 | 3.2 | 0.00 | 0.00 | 0.00 | 86 | 1012.9 |
| 20260510035535 | 16 | 0 | 0.0 | 3.2 | 0.00 | 0.00 | 0.00 | 86 | 1012.9 |
| 20260510035035 | 16 | 278 | 1.6 | 4.8 | 0.00 | 0.00 | 0.00 | 86 | 1012.9 |
| 20260510034550 | 16 | 0 | 0.0 | 4.8 | 0.00 | 0.00 | 0.00 | 86 | 1012.9 |
| 20260510034036 | 16 | 243 | 1.6 | 4.8 | 0.00 | 0.00 | 0.00 | 86 | 1012.8 |
| 20260510033535 | 16 | 285 | 1.6 | 4.8 | 0.00 | 0.00 | 0.00 | 86 | 1012.8 |
| 20260510033052 | 16 | 307 | 1.6 | 4.8 | 0.00 | 0.00 | 0.00 | 86 | 1012.7 |
| 20260510032539 | 16 | 0 | 3.2 | 4.8 | 0.00 | 0.00 | 0.00 | 86 | 1012.7 |
| 20260510032037 | 16 | 288 | 0.0 | 3.2 | 0.00 | 0.00 | 0.00 | 85 | 1012.6 |
| 20260510031555 | 16 | 292 | 1.6 | 3.2 | 0.00 | 0.00 | 0.00 | 85 | 1012.5 |
| 20260510031034 | 16 | 0 | 0.0 | 3.2 | 0.00 | 0.00 | 0.00 | 85 | 1012.5 |
| 20260510030534 | 16 | 0 | 0.0 | 3.2 | 0.00 | 0.00 | 0.00 | 85 | 1012.5 |
| 20260510030053 | 16 | 0 | 0.0 | 4.8 | 0.00 | 0.00 | 0.00 | 85 | 1012.4 |
| 20260510025534 | 16 | 0 | 0.0 | 4.8 | 0.00 | 0.00 | 0.00 | 84 | 1012.4 |
| 20260510025035 | 16 | 234 | 1.6 | 4.8 | 0.00 | 0.00 | 0.00 | 84 | 1012.4 |
| 20260510024551 | 16 | 230 | 1.6 | 6.4 | 0.00 | 0.00 | 0.00 | 84 | 1012.3 |
| 20260510024035 | 16 | 230 | 0.0 | 6.4 | 0.00 | 0.00 | 0.00 | 84 | 1012.3 |
| 20260510023539 | 16 | 251 | 3.2 | 6.4 | 0.00 | 0.00 | 0.00 | 83 | 1012.2 |
| 20260510023049 | 16 | 219 | 1.6 | 8.0 | 0.00 | 0.00 | 0.00 | 83 | 1012.2 |
| 20260510022535 | 17 | 219 | 3.2 | 8.0 | 0.00 | 0.00 | 0.00 | 82 | 1012.2 |
| 20260510022035 | 17 | 284 | 0.0 | 6.4 | 0.00 | 0.00 | 0.00 | 82 | 1012.2 |
| 20260510021545 | 17 | 253 | 1.6 | 6.4 | 0.00 | 0.00 | 0.00 | 82 | 1012.2 |
| 20260510021035 | 17 | 296 | 1.6 | 6.4 | 0.00 | 0.00 | 0.00 | 81 | 1012.2 |
| 20260510020535 | 17 | 291 | 1.6 | 9.7 | 0.00 | 0.00 | 0.00 | 81 | 1012.2 |
| 20260510020045 | 17 | 249 | 3.2 | 9.7 | 0.00 | 0.00 | 0.00 | 80 | 1012.2 |
| 20260510015532 | 17 | 277 | 3.2 | 9.7 | 0.00 | 0.00 | 0.00 | 80 | 1012.2 |
| 20260510015036 | 18 | 254 | 1.6 | 6.4 | 0.00 | 0.00 | 0.00 | 80 | 1012.2 |
| 20260510014542 | 18 | 290 | 3.2 | 9.7 | 0.00 | 0.00 | 0.00 | 80 | 1012.2 |
| 20260510014034 | 18 | 279 | 3.2 | 9.7 | 0.00 | 0.00 | 0.00 | 79 | 1012.3 |
| 20260510013536 | 18 | 286 | 3.2 | 9.7 | 0.00 | 0.00 | 0.00 | 78 | 1012.2 |
| 20260510013047 | 18 | 274 | 3.2 | 9.7 | 0.00 | 0.00 | 0.00 | 78 | 1012.2 |
| 20260510012535 | 18 | 269 | 1.6 | 9.7 | 0.00 | 0.00 | 0.00 | 78 | 1012.2 |
| 20260510012036 | 18 | 241 | 3.2 | 9.7 | 0.00 | 0.00 | 0.00 | 77 | 1012.1 |
| 20260510011549 | 19 | 264 | 3.2 | 9.7 | 0.00 | 0.00 | 0.00 | 77 | 1012.2 |
| 20260510011036 | 19 | 265 | 3.2 | 9.7 | 0.00 | 0.00 | 0.00 | 77 | 1012.2 |
| 20260510010535 | 19 | 254 | 3.2 | 9.7 | 0.00 | 0.00 | 0.00 | 77 | 1012.3 |
| 20260510010048 | 19 | 294 | 3.2 | 11.3 | 0.00 | 0.00 | 0.00 | 77 | 1012.3 |
| 20260510005534 | 19 | 193 | 4.8 | 11.3 | 0.00 | 0.00 | 0.00 | 77 | 1012.3 |
| 20260510005032 | 19 | 286 | 4.8 | 16.1 | 0.00 | 0.00 | 0.00 | 78 | 1012.3 |
| 20260510004548 | 19 | 244 | 4.8 | 16.1 | 0.00 | 0.00 | 0.00 | 77 | 1012.4 |
| 20260510004033 | 19 | 301 | 6.4 | 16.1 | 0.00 | 0.00 | 0.00 | 77 | 1012.3 |
| 20260510003532 | 19 | 295 | 6.4 | 14.5 | 0.00 | 0.00 | 0.00 | 76 | 1012.4 |
| 20260510003049 | 20 | 273 | 6.4 | 14.5 | 0.00 | 0.00 | 0.00 | 75 | 1012.3 |
| 20260510002531 | 20 | 266 | 6.4 | 14.5 | 0.00 | 0.00 | 0.00 | 75 | 1012.3 |
| 20260510002031 | 20 | 249 | 4.8 | 14.5 | 0.00 | 0.00 | 0.00 | 74 | 1012.2 |
| 20260510001554 | 20 | 285 | 6.4 | 14.5 | 0.00 | 0.00 | 0.00 | 74 | 1012.2 |
| 20260510001034 | 20 | 270 | 6.4 | 12.9 | 0.00 | 0.00 | 0.00 | 74 | 1012.1 |
| 20260510000536 | 20 | 236 | 4.8 | 12.9 | 0.00 | 0.00 | 0.00 | 73 | 1012.0 |
| 20260510000052 | 20 | 262 | 4.8 | 12.9 | 0.00 | 0.00 | 0.00 | 73 | 1012.0 |
| 20260509235532 | 20 | 295 | 4.8 | 11.3 | 0.00 | 0.00 | 0.00 | 73 | 1011.9 |
| 20260509235035 | 20 | 248 | 4.8 | 9.7 | 0.00 | 0.00 | 0.00 | 72 | 1011.9 |
| 20260509234547 | 20 | 233 | 3.2 | 11.3 | 0.00 | 0.00 | 0.00 | 72 | 1012.0 |
| 20260509234035 | 21 | 236 | 4.8 | 11.3 | 0.00 | 0.00 | 0.00 | 73 | 1011.9 |
| 20260509233535 | 20 | 245 | 4.8 | 11.3 | 0.00 | 0.00 | 0.00 | 73 | 1011.9 |
| 20260509233052 | 20 | 292 | 3.2 | 11.3 | 0.00 | 0.00 | 0.00 | 72 | 1011.9 |
| 20260509232534 | 20 | 223 | 4.8 | 11.3 | 0.00 | 0.00 | 0.00 | 72 | 1012.0 |
| 20260509232032 | 20 | 307 | 4.8 | 12.9 | 0.00 | 0.00 | 0.00 | 73 | 1011.9 |
| 20260509231549 | 20 | 301 | 4.8 | 12.9 | 0.00 | 0.00 | 0.00 | 73 | 1011.9 |
| 20260509231034 | 20 | 261 | 6.4 | 12.9 | 0.00 | 0.00 | 0.00 | 72 | 1011.9 |
| 20260509230532 | 21 | 267 | 4.8 | 12.9 | 0.00 | 0.00 | 0.00 | 72 | 1011.9 |
| 20260509230049 | 21 | 283 | 6.4 | 14.5 | 0.00 | 0.00 | 0.00 | 73 | 1011.9 |
| 20260509225535 | 21 | 273 | 3.2 | 14.5 | 0.00 | 0.00 | 0.00 | 74 | 1011.9 |
| 20260509225037 | 20 | 323 | 4.8 | 14.5 | 0.00 | 0.00 | 0.00 | 74 | 1012.0 |
| 20260509224558 | 20 | 217 | 3.2 | 12.9 | 0.00 | 0.00 | 0.00 | 74 | 1012.1 |
| 20260509224034 | 20 | 284 | 4.8 | 12.9 | 0.00 | 0.00 | 0.00 | 74 | 1012.3 |
| 20260509223535 | 20 | 225 | 6.4 | 12.9 | 0.00 | 0.00 | 0.00 | 74 | 1012.3 |
| 20260509223050 | 20 | 223 | 4.8 | 14.5 | 0.00 | 0.00 | 0.00 | 73 | 1012.3 |
| 20260509222534 | 20 | 224 | 6.4 | 14.5 | 0.00 | 0.00 | 0.00 | 73 | 1012.4 |
| 20260509222036 | 21 | 230 | 4.8 | 12.9 | 0.00 | 0.00 | 0.00 | 74 | 1012.5 |
| 20260509221604 | 21 | 256 | 4.8 | 11.3 | 0.00 | 0.00 | 0.00 | 74 | 1012.5 |
| 20260509221035 | 20 | 225 | 6.4 | 11.3 | 0.00 | 0.00 | 0.00 | 72 | 1012.5 |
| 20260509220535 | 21 | 207 | 4.8 | 19.3 | 0.00 | 0.00 | 0.00 | 73 | 1012.5 |
| 20260509220045 | 21 | 229 | 4.8 | 19.3 | 0.00 | 0.00 | 0.00 | 74 | 1012.5 |
| 20260509215535 | 21 | 303 | 6.4 | 14.5 | 0.00 | 0.00 | 0.00 | 73 | 1012.6 |
| 20260509215035 | 21 | 319 | 4.8 | 12.9 | 0.00 | 0.00 | 0.00 | 73 | 1012.8 |
| 20260509214545 | 21 | 257 | 4.8 | 12.9 | 0.00 | 0.00 | 0.00 | 75 | 1012.7 |
| 20260509214037 | 20 | 265 | 4.8 | 12.9 | 0.00 | 0.00 | 0.00 | 75 | 1012.6 |
| 20260509213532 | 20 | 288 | 6.4 | 12.9 | 0.00 | 0.00 | 0.00 | 75 | 1012.7 |
| 20260509213053 | 20 | 217 | 4.8 | 14.5 | 0.00 | 0.00 | 0.00 | 75 | 1012.7 |
| 20260509212534 | 20 | 242 | 6.4 | 16.1 | 0.00 | 0.00 | 0.00 | 74 | 1012.8 |
| 20260509212033 | 20 | 299 | 4.8 | 16.1 | 0.00 | 0.00 | 0.00 | 75 | 1012.8 |
| 20260509211556 | 20 | 292 | 8.0 | 14.5 | 0.00 | 0.00 | 0.00 | 75 | 1012.9 |
| 20260509211036 | 20 | 271 | 4.8 | 14.5 | 0.00 | 0.00 | 0.00 | 75 | 1012.9 |
| 20260509210537 | 20 | 250 | 6.4 | 14.5 | 0.00 | 0.00 | 0.00 | 76 | 1013.0 |
| 20260509210054 | 20 | 244 | 6.4 | 14.5 | 0.00 | 0.00 | 0.00 | 75 | 1012.9 |
| 20260509205531 | 20 | 312 | 6.4 | 14.5 | 0.00 | 0.00 | 0.00 | 74 | 1013.0 |
| 20260509205034 | 20 | 256 | 8.0 | 12.9 | 0.00 | 0.00 | 0.00 | 75 | 1013.0 |
| 20260509204547 | 20 | 288 | 4.8 | 12.9 | 0.00 | 0.00 | 0.00 | 75 | 1013.1 |
| 20260509204035 | 20 | 263 | 4.8 | 12.9 | 0.00 | 0.00 | 0.00 | 75 | 1013.2 |
| 20260509203536 | 20 | 261 | 4.8 | 16.1 | 0.00 | 0.00 | 0.00 | 75 | 1013.2 |
| 20260509203046 | 20 | 269 | 6.4 | 16.1 | 0.00 | 0.00 | 0.00 | 76 | 1013.2 |
| 20260509202536 | 20 | 265 | 6.4 | 16.1 | 0.00 | 0.00 | 0.00 | 75 | 1013.2 |
| 20260509202035 | 20 | 308 | 6.4 | 14.5 | 0.00 | 0.00 | 0.00 | 76 | 1013.2 |
| 20260509201557 | 20 | 251 | 6.4 | 14.5 | 0.00 | 0.00 | 0.00 | 75 | 1013.2 |
| 20260509201035 | 20 | 261 | 8.0 | 16.1 | 0.00 | 0.00 | 0.00 | 75 | 1013.2 |
| 20260509200534 | 20 | 259 | 6.4 | 16.1 | 0.00 | 0.00 | 0.00 | 76 | 1013.3 |
| 20260509195536 | 20 | 259 | 6.4 | 14.5 | 0.00 | 0.00 | 0.00 | 75 | 1013.3 |
| 20260509195034 | 20 | 321 | 4.8 | 16.1 | 0.00 | 0.00 | 0.00 | 76 | 1013.2 |
| 20260509194555 | 20 | 286 | 6.4 | 16.1 | 0.00 | 0.00 | 0.00 | 76 | 1013.2 |
| 20260509194031 | 20 | 219 | 6.4 | 16.1 | 0.00 | 0.00 | 0.00 | 77 | 1013.3 |
| 20260509193532 | 20 | 274 | 4.8 | 16.1 | 0.00 | 0.00 | 0.00 | 78 | 1013.3 |
| 20260509193057 | 20 | 211 | 6.4 | 16.1 | 0.00 | 0.00 | 0.00 | 78 | 1013.3 |
| 20260509192531 | 20 | 261 | 4.8 | 11.3 | 0.00 | 0.00 | 0.00 | 77 | 1013.3 |
| 20260509192034 | 20 | 271 | 6.4 | 11.3 | 0.00 | 0.00 | 0.00 | 78 | 1013.3 |
| 20260509191546 | 20 | 238 | 6.4 | 11.3 | 0.00 | 0.00 | 0.00 | 78 | 1013.3 |
| 20260509191037 | 20 | 246 | 4.8 | 12.9 | 0.00 | 0.00 | 0.00 | 79 | 1013.3 |
| 20260509190534 | 20 | 252 | 4.8 | 16.1 | 0.00 | 0.00 | 0.00 | 79 | 1013.3 |
| 20260509190051 | 19 | 257 | 6.4 | 16.1 | 0.00 | 0.00 | 0.00 | 79 | 1013.3 |
| 20260509185534 | 19 | 229 | 4.8 | 12.9 | 0.00 | 0.00 | 0.00 | 79 | 1013.4 |
| 20260509185035 | 19 | 286 | 4.8 | 12.9 | 0.00 | 0.00 | 0.00 | 79 | 1013.4 |
| 20260509184543 | 19 | 211 | 6.4 | 14.5 | 0.00 | 0.00 | 0.00 | 80 | 1013.4 |
| 20260509184036 | 19 | 275 | 6.4 | 14.5 | 0.00 | 0.00 | 0.00 | 79 | 1013.4 |
| 20260509183532 | 19 | 251 | 8.0 | 14.5 | 0.00 | 0.00 | 0.00 | 80 | 1013.3 |
| 20260509183051 | 19 | 261 | 6.4 | 12.9 | 0.00 | 0.00 | 0.00 | 79 | 1013.4 |
| 20260509182531 | 19 | 275 | 4.8 | 12.9 | 0.00 | 0.00 | 0.00 | 80 | 1013.4 |
| 20260509182031 | 19 | 210 | 4.8 | 12.9 | 0.00 | 0.00 | 0.00 | 81 | 1013.4 |
| 20260509181555 | 19 | 272 | 3.2 | 8.0 | 0.00 | 0.00 | 0.00 | 80 | 1013.5 |
| 20260509181033 | 19 | 225 | 3.2 | 11.3 | 0.00 | 0.00 | 0.00 | 81 | 1013.5 |
| 20260509180535 | 19 | 213 | 3.2 | 11.3 | 0.00 | 0.00 | 0.00 | 81 | 1013.5 |
| 20260509180055 | 18 | 286 | 3.2 | 11.3 | 0.00 | 0.00 | 0.00 | 81 | 1013.5 |
| 20260509175531 | 18 | 273 | 4.8 | 9.7 | 0.00 | 0.00 | 0.00 | 81 | 1013.5 |
| 20260509175034 | 18 | 296 | 4.8 | 9.7 | 0.00 | 0.00 | 0.00 | 82 | 1013.5 |
| 20260509174544 | 18 | 261 | 3.2 | 8.0 | 0.00 | 0.00 | 0.00 | 82 | 1013.6 |
| 20260509174031 | 18 | 291 | 3.2 | 8.0 | 0.00 | 0.00 | 0.00 | 82 | 1013.6 |
| 20260509173532 | 18 | 215 | 3.2 | 11.3 | 0.00 | 0.00 | 0.00 | 82 | 1013.6 |
| 20260509173048 | 18 | 267 | 4.8 | 11.3 | 0.00 | 0.00 | 0.00 | 83 | 1013.6 |
| 20260509172532 | 18 | 304 | 3.2 | 9.7 | 0.00 | 0.00 | 0.00 | 84 | 1013.6 |
| 20260509172035 | 18 | 283 | 3.2 | 9.7 | 0.00 | 0.00 | 0.00 | 84 | 1013.6 |
| 20260509171548 | 18 | 279 | 1.6 | 9.7 | 0.00 | 0.00 | 0.00 | 84 | 1013.7 |
| 20260509171031 | 18 | 243 | 3.2 | 9.7 | 0.00 | 0.00 | 0.00 | 85 | 1013.6 |
| 20260509170534 | 17 | 211 | 3.2 | 9.7 | 0.00 | 0.00 | 0.00 | 86 | 1013.5 |
| 20260509170047 | 17 | 217 | 3.2 | 9.7 | 0.00 | 0.00 | 0.00 | 86 | 1013.5 |
| 20260509165532 | 17 | 247 | 1.6 | 9.7 | 0.00 | 0.00 | 0.00 | 87 | 1013.5 |
| 20260509165031 | 17 | 272 | 3.2 | 9.7 | 0.00 | 0.00 | 0.00 | 88 | 1013.6 |
| 20260509164554 | 17 | 268 | 3.2 | 8.0 | 0.00 | 0.00 | 0.00 | 87 | 1013.5 |
| 20260509164030 | 17 | 266 | 1.6 | 6.4 | 0.00 | 0.00 | 0.00 | 88 | 1013.6 |
| 20260509163534 | 17 | 204 | 0.0 | 6.4 | 0.00 | 0.00 | 0.00 | 88 | 1013.6 |
| 20260509163045 | 17 | 296 | 1.6 | 6.4 | 0.00 | 0.00 | 0.00 | 88 | 1013.6 |
| 20260509162532 | 16 | 251 | 1.6 | 6.4 | 0.00 | 0.00 | 0.00 | 89 | 1013.6 |
| 20260509162030 | 16 | 246 | 1.6 | 6.4 | 0.00 | 0.00 | 0.00 | 89 | 1013.7 |
| 20260509161555 | 16 | 0 | 1.6 | 6.4 | 0.00 | 0.00 | 0.00 | 89 | 1013.6 |
| 20260509161034 | 16 | 278 | 1.6 | 6.4 | 0.00 | 0.00 | 0.00 | 89 | 1013.7 |
| 20260509160535 | 16 | 276 | 1.6 | 4.8 | 0.00 | 0.00 | 0.00 | 89 | 1013.7 |
| 20260509160044 | 16 | 260 | 1.6 | 4.8 | 0.00 | 0.00 | 0.00 | 89 | 1013.7 |
| 20260509155534 | 16 | 247 | 1.6 | 6.4 | 0.00 | 0.00 | 0.00 | 89 | 1013.8 |
| 20260509155034 | 16 | 228 | 1.6 | 6.4 | 0.00 | 0.00 | 0.00 | 90 | 1013.8 |
| 20260509154548 | 16 | 241 | 1.6 | 4.8 | 0.00 | 0.00 | 0.00 | 90 | 1013.7 |
| 20260509154032 | 16 | 244 | 1.6 | 6.4 | 0.00 | 0.00 | 0.00 | 90 | 1013.7 |
| 20260509153537 | 16 | 250 | 0.0 | 6.4 | 0.00 | 0.00 | 0.00 | 90 | 1013.6 |
| 20260509153055 | 16 | 217 | 3.2 | 6.4 | 0.00 | 0.00 | 0.00 | 90 | 1013.6 |
| 20260509152537 | 16 | 223 | 1.6 | 6.4 | 0.00 | 0.00 | 0.00 | 90 | 1013.6 |
| 20260509152031 | 16 | 244 | 0.0 | 4.8 | 0.00 | 0.00 | 0.00 | 91 | 1013.7 |